Location: 3 Angels Observatory
(30.5437°N, 88.5068°W)
Time: 21:43:43
(UTC-05:00)

Amateur Radio Satellites - All Passes

Search period start: 22 May 2015 21:13
Search period end: 23 May 2015 21:13
Location: 3 Angels Observatory, 30.5437°N, 88.5068°W

Satellite Date Start Highest point End Downlink Frequencies (MHz)
Time Altitude Azimuth
DELFI C3 22 May 21:14:00 21:16:47 19° 72° (ENE) 21:19:42 145.870
DOVE 4 22 May 21:17:50 21:22:39 60° 260° (W) 21:27:46 437.250
CUBEBUG 2 22 May 21:19:25 21:23:34 32° 73° (ENE) 21:27:50 437.445
CINEMA 3 22 May 21:31:19 21:36:11 89° 258° (WSW) 21:41:13 145.822/145.860
COMPASS 1 22 May 21:31:57 21:36:05 56° 260° (W) 21:40:12 437.405
GOMX 1 22 May 21:32:22 21:36:30 27° 266° (W) 21:40:47 467.674
ZACube-1 22 May 21:42:19 21:46:28 35° 74° (ENE) 21:50:41 437.345
AAUSAT CUBESAT 2 22 May 21:48:28 21:52:26 40° 262° (W) 21:56:22 437.432
RS-15 22 May 21:49:58 21:58:27 21° 255° (WSW) 22:06:14 29.354- 29.394
UKube-1 22 May 21:55:23 21:58:35 21° 72° (ENE) 22:01:55 .
DX 1 22 May 21:56:44 22:00:09 24° 72° (ENE) 22:03:42 434.975-435.025
Oscar 11 22 May 22:05:55 22:10:13 61° 259° (W) 22:14:32 145.826/435.025
HUMSAT D 22 May 22:15:56 22:19:54 36° 74° (ENE) 22:23:54 437.325/437.525
UWE-3 22 May 22:16:27 22:21:06 69° 259° (W) 22:25:48 435.000/436.395/437.385
AISAT 22 May 22:21:58 22:25:23 23° 72° (ENE) 22:28:55 437.250
AIST 1 22 May 22:33:46 22:35:49 13° 287° (WNW) 22:37:37
FUNcube-1 22 May 22:39:45 22:44:10 47° 261° (W) 22:48:36 145.935
50 SAT 22 May 22:43:36 22:47:24 42° 75° (ENE) 22:51:13 437.505
TIGRISAT 22 May 22:46:37 22:50:08 24° 95° (E) 22:53:40 435.000
DELFI C3 22 May 22:48:28 22:51:46 23° 264° (W) 22:54:59 145.870
CUBEBUG 2 22 May 22:56:49 23:00:18 20° 267° (W) 23:03:40 437.445
NANOSAT C BR1 22 May 23:02:36 23:05:07 16° 93° (E) 23:07:49 145.865
Cosmos 2504 22 May 23:04:13 23:10:52 40° 270° (W) 23:17:24 435.465 / 435.565
UNISAT 6 22 May 23:04:24 23:08:34 42° 98° (E) 23:12:40 437.425
QB50P2 22 May 23:06:39 23:09:36 19° 94° (E) 23:12:40 145.880/145.840
ESTCUBE 1 22 May 23:11:43 23:15:59 47° 75° (ENE) 23:20:18 437.505/2401.250
POPSAT HIP 1 22 May 23:19:39 23:23:14 26° 96° (E) 23:26:50 437.405
ZACube-1 22 May 23:19:56 23:22:56 16° 267° (W) 23:25:44 437.345
DUCHIFAT 1 22 May 23:25:25 23:29:10 30° 97° (E) 23:32:56 145.980
CUSAT 1 22 May 23:25:52 23:27:55 12° 60° (ENE) 23:30:22 437.405
VELOX 1 22 May 23:27:30 23:31:49 57° 259° (W) 23:36:11 145.980
UKube-1 22 May 23:31:04 23:34:37 24° 264° (W) 23:38:06 .
DX 1 22 May 23:32:58 23:36:21 21° 265° (W) 23:39:39 434.975-435.025
CUBEBUG 1 22 May 23:39:25 23:43:44 90° 246° (WSW) 23:48:07 437.445
TISAT 1 22 May 23:44:22 23:46:56 16° 71° (ENE) 23:49:41 437.305
ANTELSAT 22 May 23:47:30 23:51:47 53° 285° (WNW) 23:55:59 437.575/2403.000
HUMSAT D 22 May 23:53:27 23:55:49 14° 268° (W) 23:57:55 437.325/437.525
AISAT 22 May 23:58:16 00:01:53 24° 264° (W) 00:05:24 437.250
DANDE 23 May 00:02:28 00:08:08 22° 66° (ENE) 00:13:19 436.750
POLYITAN 1 23 May 00:03:00 00:07:18 82° 283° (WNW) 00:11:33 437.675
QB50P1 23 May 00:03:40 00:07:58 82° 283° (WNW) 00:12:13 145.935-145.965
ISS 23 May 00:04:38 00:07:36 35° 130° (SE) 00:10:37 145.825
BUGSAT 1 23 May 00:09:32 00:13:49 76° 101° (E) 00:18:03 437.445
TIGRISAT 23 May 00:23:25 00:26:46 21° 289° (WNW) 00:29:58 435.000
SPROUT 23 May 00:36:29 00:40:46 76° 259° (WSW) 00:45:06 437.525
NANOSAT C BR1 23 May 00:37:14 00:41:03 31° 287° (WNW) 00:44:46 145.865
QB50P2 23 May 00:41:53 00:45:30 26° 287° (WNW) 00:49:02 145.880/145.840
UNISAT 6 23 May 00:43:00 00:45:00 13° 291° (WNW) 00:46:45 437.425
ESTCUBE 1 23 May 00:51:44 00:53:10 11° 269° (W) 00:54:18 437.505/2401.250
POPSAT HIP 1 23 May 00:55:50 00:58:57 19° 288° (WNW) 01:01:55 437.405
DUCHIFAT 1 23 May 01:01:57 01:04:46 17° 289° (WNW) 01:07:24 145.980
CUSAT 1 23 May 01:04:49 01:12:13 90° 269° (W) 01:17:53 437.405
GONETS M04 23 May 01:10:14 01:19:00 71° 82° (E) 01:27:42
PCSat 23 May 01:15:01 01:20:01 41° 110° (ESE) 01:25:07 145.827
TISAT 1 23 May 01:18:45 01:22:30 30° 263° (W) 01:26:14 437.305
ITUPSAT 1 23 May 01:33:22 01:37:52 45° 74° (ENE) 01:42:26 437.325
ISS 23 May 01:41:59 01:44:08 16° 325° (NW) 01:46:13 145.825
BEESAT 23 May 01:43:54 01:48:34 62° 76° (ENE) 01:53:17 436.000
DANDE 23 May 01:44:25 01:52:08 57° 268° (W) 01:58:13 436.750
SWISSCUBE 23 May 01:51:34 01:56:19 84° 77° (ENE) 02:01:05 437.505
Cosmos 2499 23 May 01:54:37 01:59:06 18° 71° (ENE) 02:03:59 435.465 / 435.565
Oscar 19 23 May 02:08:22 02:13:28 61° 100° (E) 02:18:32 437.125/150
ITAMSAT 1 23 May 02:13:42 02:16:51 17° 93° (E) 02:20:16 435.822/435.867
Gurwin Techsat 1B 23 May 02:24:02 02:27:51 21° 94° (E) 02:31:51 435.225
STARS 23 May 02:42:03 02:45:35 25° 72° (ENE) 02:49:14 437.465
PHONESAT 2.4 23 May 02:49:04 02:49:52 11° 140° (SE) 02:50:49 2401.200-2431.200
O/OREOS (USA 219) 23 May 02:49:51 02:54:16 60° 70° (ENE) 02:58:41 437.305
PCSat 23 May 02:59:29 03:03:38 21° 305° (NW) 03:07:39 145.827
KKS-1 23 May 03:01:56 03:06:23 75° 77° (ENE) 03:10:53 437.445
GONETS M04 23 May 03:09:24 03:15:07 18° 276° (W) 03:20:16
VERMONT LUNAR 23 May 03:12:28 03:15:40 87° 155° (SSE) 03:18:53 437.305
ITUPSAT 1 23 May 03:13:35 03:16:03 13° 268° (W) 03:18:12 437.325
SO-50 23 May 03:32:42 03:36:49 34° 112° (ESE) 03:41:08 436.795
AO-7 23 May 03:34:02 03:39:12 19° 93° (E) 03:44:54 29.400- 29.500
Cosmos 2499 23 May 03:45:52 03:52:44 56° 268° (W) 03:59:41 435.465 / 435.565
Oscar 19 23 May 03:50:06 03:52:22 12° 293° (WNW) 03:54:19 437.125/150
HORYU 2 23 May 03:51:17 03:54:48 24° 96° (E) 03:58:24 437.375
ITAMSAT 1 23 May 03:51:38 03:56:35 44° 287° (WNW) 04:01:30 435.822/435.867
BEESAT 3 23 May 03:53:59 03:56:52 19° 54° (NE) 03:59:48 437.485
MOZHAYETS 4 23 May 03:59:32 04:02:49 20° 72° (ENE) 04:06:14
Gurwin Techsat 1B 23 May 04:03:04 04:07:57 37° 287° (WNW) 04:12:45 435.225
STARS 23 May 04:18:30 04:21:59 22° 265° (W) 04:25:23 437.465
PHONESAT 2.4 23 May 04:24:12 04:27:40 85° 152° (SSE) 04:31:09 2401.200-2431.200
JAS-2 23 May 04:27:23 04:32:27 54° 100° (E) 04:37:41 435.910
BEESAT 2 23 May 04:35:48 04:39:43 45° 60° (ENE) 04:43:36 435.950
VERMONT LUNAR 23 May 04:50:41 04:53:09 20° 345° (NNW) 04:55:37 437.305
SO-50 23 May 05:13:53 05:17:28 21° 308° (NW) 05:21:02 436.795
AO-7 23 May 05:24:24 05:32:44 73° 289° (WNW) 05:41:03 29.400- 29.500
CUBESAT XI-V 23 May 05:27:11 05:29:05 13° 69° (ENE) 05:31:14 437.345
HORYU 2 23 May 05:27:52 05:31:22 23° 288° (WNW) 05:34:45 437.375
BEESAT 3 23 May 05:31:24 05:34:51 27° 248° (WSW) 05:38:12 437.485
AIST 2 23 May 05:34:53 05:39:01 57° 61° (ENE) 05:43:04 435.215
MOZHAYETS 4 23 May 05:35:54 05:39:54 28° 264° (W) 05:43:49
Cubesat XI-IV 23 May 05:53:17 05:54:49 11° 91° (E) 05:56:45 437.490
PHONESAT 2.4 23 May 06:03:16 06:06:04 22° 345° (NNW) 06:08:52 2401.200-2431.200
M-CUBED/EXP-1 PRIME 23 May 06:06:00 06:07:36 12° 67° (ENE) 06:09:25 437.505
JAS-2 23 May 06:14:54 06:17:15 13° 292° (WNW) 06:19:17 435.910
BEESAT 2 23 May 06:16:43 06:17:26 10° 251° (WSW) 06:17:51 435.950
AUBIESAT-1 23 May 06:17:46 06:20:01 15° 68° (ENE) 06:22:25 437.475
VERMONT LUNAR 23 May 06:29:23 06:31:07 14° 2° (N) 06:32:52 437.305
STRAND 1 23 May 06:34:12 06:38:38 32° 72° (ENE) 06:43:11 437.568
Cosmos 2491 23 May 06:54:02 07:02:26 48° 78° (ENE) 07:10:51 435.465 / 435.565
CUBESAT XI-V 23 May 07:01:45 07:06:10 46° 261° (W) 07:10:35 437.345
PRISM 23 May 07:05:28 07:09:33 88° 78° (ENE) 07:13:39 437.425
CUTE-I 23 May 07:10:47 07:16:10 81° 101° (ESE) 07:21:33 437.470
AO-7 23 May 07:21:13 07:24:23 12° 303° (WNW) 07:26:54 29.400- 29.500
Cubesat XI-IV 23 May 07:30:05 07:35:24 64° 285° (WNW) 07:40:43 437.490
M-CUBED/EXP-1 PRIME 23 May 07:37:49 07:42:12 48° 256° (WSW) 07:46:17 437.505
BRITE-PL 23 May 07:39:07 07:41:16 13° 89° (E) 07:43:46 437.365/2234.400
YUBILEINY 23 May 07:39:48 07:48:07 51° 91° (E) 07:56:31 435.215
PHONESAT 2.4 23 May 07:42:47 07:44:58 16° 2° (N) 07:47:08 2401.200-2431.200
RS-15 23 May 07:45:07 07:50:40 17° 104° (ESE) 07:57:11 29.354- 29.394
AUBIESAT-1 23 May 07:50:24 07:54:35 39° 256° (WSW) 07:58:30 437.475
GOMX 1 23 May 08:03:42 08:05:59 13° 89° (E) 08:08:34 467.674
VERMONT LUNAR 23 May 08:06:18 08:09:01 25° 18° (NNE) 08:11:45 437.305
ISS 23 May 08:12:37 08:15:39 35° 41° (NE) 08:18:41 145.825
STRAND 1 23 May 08:13:57 08:17:54 22° 265° (W) 08:21:42 437.568
CANX-2 23 May 08:29:00 08:30:50 13° 92° (E) 08:32:52 2200.000
CUTE 1.7 + AOD 2 23 May 08:33:13 08:35:03 13° 92° (E) 08:37:07 437.475
HO-68 23 May 08:39:57 08:45:45 28° 96° (E) 08:51:45 435.675
AIST 1 23 May 08:43:51 08:48:15 88° 83° (E) 08:52:38
Cosmos 2491 23 May 08:51:36 08:59:00 30° 273° (W) 09:06:03 435.465 / 435.565
SEEDS 23 May 09:01:20 09:04:41 24° 96° (E) 09:08:08 437.485
BRITE-PL 23 May 09:14:42 09:20:19 65° 284° (WNW) 09:25:41 437.365/2234.400
PHONESAT 2.4 23 May 09:20:45 09:23:47 28° 19° (NNE) 09:26:50 2401.200-2431.200
COMPASS 1 23 May 09:21:11 09:24:56 33° 97° (E) 09:28:42 437.405
DOVE 4 23 May 09:23:00 09:28:06 62° 99° (E) 09:32:54 437.250
CINEMA 3 23 May 09:32:49 09:37:05 34° 96° (E) 09:41:14 145.822/145.860
AAUSAT CUBESAT 2 23 May 09:36:51 09:40:49 45° 99° (E) 09:44:47 437.432
YUBILEINY 23 May 09:37:58 09:45:19 28° 287° (WNW) 09:52:21 435.215
GOMX 1 23 May 09:39:17 09:44:34 56° 285° (WNW) 09:49:35 467.674
TIGRISAT 23 May 09:41:18 09:43:18 13° 69° (ENE) 09:45:33 435.000
Cosmos 2504 23 May 09:42:12 09:49:10 30° 89° (E) 09:56:03 435.465 / 435.565
VERMONT LUNAR 23 May 09:43:13 09:46:21 52° 213° (SSW) 09:49:29 437.305
ISS 23 May 09:50:07 09:51:51 13° 233° (SW) 09:53:29 145.825
RS-15 23 May 09:51:01 10:01:56 88° 300° (WNW) 10:13:02 29.354- 29.394
UNISAT 6 23 May 09:58:16 10:01:44 21° 72° (ENE) 10:05:20 437.425
Oscar 11 23 May 09:59:05 10:03:01 35° 98° (E) 10:06:58 145.826/435.025
CANX-2 23 May 10:03:04 10:06:56 36° 285° (WNW) 10:10:45 2200.000
CUTE 1.7 + AOD 2 23 May 10:07:17 10:11:09 36° 286° (WNW) 10:14:58 437.475
POPSAT HIP 1 23 May 10:10:05 10:10:28 10° 69° (ENE) 10:11:09 437.405
PCSat 23 May 10:11:07 10:12:32 11° 49° (NE) 10:14:19 145.827
UWE-3 23 May 10:12:42 10:16:44 36° 97° (E) 10:20:41 435.000/436.395/437.385
DUCHIFAT 1 23 May 10:14:35 10:15:55 12° 69° (ENE) 10:17:31 145.980
HO-68 23 May 10:26:56 10:33:39 44° 290° (WNW) 10:40:16 435.675
DELFI C3 23 May 10:32:22 10:36:22 69° 100° (E) 10:40:21 145.870
FUNcube-1 23 May 10:34:02 10:38:14 49° 99° (E) 10:42:20 145.935
SEEDS 23 May 10:37:18 10:40:22 19° 288° (WNW) 10:43:18 437.485
ANTELSAT 23 May 10:40:09 10:44:48 66° 76° (ENE) 10:49:29 437.575/2403.000
POLYITAN 1 23 May 10:50:32 10:54:25 35° 74° (ENE) 10:58:22 437.675
QB50P1 23 May 10:50:57 10:54:48 34° 74° (ENE) 10:58:42 145.935-145.965
CUBEBUG 2 23 May 10:52:37 10:57:00 53° 284° (WNW) 11:01:12 437.445
BUGSAT 1 23 May 10:54:42 10:57:57 24° 72° (ENE) 11:01:21 437.445
COMPASS 1 23 May 10:58:05 11:00:21 14° 289° (WNW) 11:02:26 437.405
PHONESAT 2.4 23 May 10:58:39 11:02:02 52° 213° (SSW) 11:05:24 2401.200-2431.200
DOVE 4 23 May 11:03:19 11:05:16 12° 293° (WNW) 11:06:53 437.250
CINEMA 3 23 May 11:10:49 11:14:01 18° 290° (WNW) 11:16:57 145.822/145.860
ESTCUBE 1 23 May 11:11:12 11:13:53 16° 93° (E) 11:16:48 437.505/2401.250
ZACube-1 23 May 11:12:46 11:16:59 49° 284° (WNW) 11:21:03 437.345
TIGRISAT 23 May 11:15:06 11:19:40 49° 261° (W) 11:24:14 435.000
AAUSAT CUBESAT 2 23 May 11:15:11 11:16:04 10° 290° (WNW) 11:16:41 437.432
UKube-1 23 May 11:23:09 11:27:31 86° 102° (ESE) 11:31:52 .
NANOSAT C BR1 23 May 11:23:26 11:27:41 89° 256° (WSW) 11:31:59 145.865
VELOX 1 23 May 11:23:39 11:27:52 41° 99° (E) 11:32:06 145.980
DX 1 23 May 11:25:39 11:30:04 81° 283° (WNW) 11:34:26 434.975-435.025
QB50P2 23 May 11:28:18 11:32:34 75° 259° (WSW) 11:36:52 145.880/145.840
Cosmos 2504 23 May 11:34:11 11:42:21 46° 281° (W) 11:49:59 435.465 / 435.565
UNISAT 6 23 May 11:34:14 11:38:21 29° 263° (W) 11:42:24 437.425
CUBEBUG 1 23 May 11:34:22 11:38:04 26° 96° (E) 11:41:49 437.445
Oscar 11 23 May 11:36:30 11:38:55 14° 290° (WNW) 11:41:10 145.826/435.025
HUMSAT D 23 May 11:41:03 11:45:06 51° 284° (WNW) 11:49:05 437.325/437.525
POPSAT HIP 1 23 May 11:41:47 11:45:57 51° 260° (W) 11:50:08 437.405
JUGNU 23 May 11:45:32 11:49:46 20° 168° (SSE) 11:54:01 437.505
DUCHIFAT 1 23 May 11:47:18 11:51:22 44° 261° (W) 11:55:28 145.980
UWE-3 23 May 11:50:28 11:52:58 15° 290° (WNW) 11:55:14 435.000/436.395/437.385
PCSat 23 May 11:51:18 11:56:44 84° 246° (WSW) 12:02:08 145.827
AISAT 23 May 11:53:31 11:58:02 80° 283° (WNW) 12:02:30 437.250
50 SAT 23 May 12:00:04 12:03:51 51° 284° (WNW) 12:07:34 437.505
RS-15 23 May 12:08:05 12:16:12 22° 321° (NW) 12:23:59 29.354- 29.394
GONETS M04 23 May 12:12:35 12:16:24 14° 83° (E) 12:20:58
FUNcube-1 23 May 12:13:19 12:14:08 10° 291° (WNW) 12:14:41 145.935
CUSAT 1 23 May 12:22:33 12:26:43 18° 83° (E) 12:31:46 437.405
POLYITAN 1 23 May 12:28:02 12:30:28 14° 267° (W) 12:32:40 437.675
QB50P1 23 May 12:28:25 12:30:49 14° 267° (W) 12:32:59 145.935-145.965
SPROUT 23 May 12:29:13 12:32:56 28° 96° (E) 12:36:42 437.525
BUGSAT 1 23 May 12:30:23 12:33:25 19° 266° (W) 12:36:20 437.445
ESTCUBE 1 23 May 12:46:46 12:50:53 34° 286° (WNW) 12:54:57 437.505/2401.250
SRMSAT 23 May 12:55:17 12:58:56 17° 165° (SSE) 13:02:40 437.500
VELOX 1 23 May 13:01:42 13:04:06 14° 291° (WNW) 13:06:17 145.980
DANDE 23 May 13:04:26 13:09:44 31° 87° (E) 13:16:22 436.750
TISAT 1 23 May 13:08:15 13:12:30 63° 101° (E) 13:16:43 437.305
CUBEBUG 1 23 May 13:10:54 13:14:18 21° 288° (WNW) 13:17:33 437.445
Oscar 19 23 May 13:19:33 13:24:31 49° 74° (ENE) 13:29:33 437.125/150
ITAMSAT 1 23 May 13:27:03 13:29:46 15° 68° (ENE) 13:32:45 435.822/435.867
JUGNU 23 May 13:33:19 13:38:17 28° 177° (S) 13:43:14 437.505
Gurwin Techsat 1B 23 May 13:40:05 13:43:42 20° 69° (ENE) 13:47:31 435.225
ITUPSAT 1 23 May 13:40:31 13:43:45 19° 94° (E) 13:47:12 437.325
SO-50 23 May 13:49:15 13:54:13 83° 63° (ENE) 13:59:03 436.795
BEESAT 23 May 13:50:22 13:54:13 25° 96° (E) 13:58:11 436.000
SWISSCUBE 23 May 13:57:52 14:02:09 33° 98° (E) 14:06:29 437.505
CUSAT 1 23 May 14:02:02 14:08:29 66° 281° (W) 14:16:24 437.405
GONETS M04 23 May 14:03:31 14:12:21 85° 275° (W) 14:21:16
SPROUT 23 May 14:05:49 14:08:51 18° 289° (WNW) 14:11:43 437.525
Cosmos 2499 23 May 14:24:26 14:29:53 20° 87° (E) 14:35:32 435.465 / 435.565
AO-7 23 May 14:28:30 14:33:00 17° 59° (ENE) 14:38:01 29.400- 29.500
JAS-2 23 May 14:35:42 14:39:07 15° 69° (ENE) 14:42:45 435.910
SRMSAT 23 May 14:42:42 14:47:35 27° 174° (S) 14:52:28 437.500
HORYU 2 23 May 14:46:06 14:47:39 12° 69° (ENE) 14:49:28 437.375
DANDE 23 May 14:46:54 14:52:46 38° 288° (WNW) 14:59:54 436.750
KKS-1 23 May 14:59:27 15:02:55 23° 95° (E) 15:06:29 437.445
Oscar 19 23 May 15:01:13 15:04:11 15° 268° (W) 15:06:52 437.125/150
ITAMSAT 1 23 May 15:03:53 15:08:54 51° 260° (W) 15:13:55 435.822/435.867
ITUPSAT 1 23 May 15:17:26 15:21:44 33° 287° (WNW) 15:25:59 437.325
Gurwin Techsat 1B 23 May 15:18:27 15:23:25 40° 262° (W) 15:28:23 435.225
O/OREOS (USA 219) 23 May 15:19:29 15:21:41 14° 101° (ESE) 15:24:09 437.305
JUGNU 23 May 15:22:01 15:26:49 26° 187° (S) 15:31:34 437.505
BEESAT 23 May 15:28:05 15:32:00 25° 288° (WNW) 15:35:49 436.000
SWISSCUBE 23 May 15:36:23 15:39:47 19° 290° (WNW) 15:43:02 437.505
GONETS M04 23 May 16:06:44 16:10:43 13° 295° (WNW) 16:13:54
STARS 23 May 16:12:42 16:17:08 76° 283° (WNW) 16:21:31 437.465
Cosmos 2499 23 May 16:14:17 16:22:38 62° 278° (W) 16:30:23 435.465 / 435.565
AO-7 23 May 16:16:39 16:24:57 87° 254° (WSW) 16:33:19 29.400- 29.500
JAS-2 23 May 16:16:40 16:23:53 75° 258° (WSW) 16:30:16 435.910
HORYU 2 23 May 16:19:34 16:23:56 48° 260° (W) 16:28:17 437.375
SRMSAT 23 May 16:31:18 16:36:17 28° 184° (S) 16:41:16 437.500
KKS-1 23 May 16:35:50 16:39:30 24° 288° (WNW) 16:43:03 437.445
RS-15 23 May 16:48:51 16:55:12 16° 33° (NNE) 17:02:22 29.354- 29.394
O/OREOS (USA 219) 23 May 16:56:35 17:00:49 38° 293° (WNW) 17:05:02 437.305
Cubesat XI-IV 23 May 17:10:27 17:12:08 12° 67° (ENE) 17:14:09 437.490
JUGNU 23 May 17:11:52 17:15:18 16° 196° (SSW) 17:18:38 437.505
MOZHAYETS 4 23 May 17:35:52 17:40:26 79° 283° (WNW) 17:44:59
BEESAT 3 23 May 17:42:51 17:44:33 13° 110° (ESE) 17:46:28 437.485
YUBILEINY 23 May 17:58:49 18:03:59 18° 68° (ENE) 18:09:42 435.215
AO-7 23 May 18:15:26 18:18:54 12° 270° (W) 18:21:35 29.400- 29.500
SRMSAT 23 May 18:20:48 18:24:58 20° 193° (SSW) 18:29:05 437.500
BEESAT 2 23 May 18:24:16 18:27:55 33° 113° (ESE) 18:31:40 435.950
CUTE-I 23 May 18:27:02 18:32:19 76° 76° (ENE) 18:37:38 437.470
Cubesat XI-IV 23 May 18:46:28 18:51:45 68° 258° (WSW) 18:57:03 437.490
STRAND 1 23 May 18:51:09 18:54:25 18° 93° (E) 18:57:55 437.568
PRISM 23 May 18:54:13 18:57:06 19° 95° (E) 19:00:09 437.425
RS-15 23 May 18:59:04 19:10:41 64° 59° (ENE) 19:22:46 29.354- 29.394
CUBESAT XI-V 23 May 19:03:44 19:08:25 67° 100° (E) 19:13:07 437.345
HO-68 23 May 19:06:53 19:08:36 11° 60° (ENE) 19:10:53 435.675
BEESAT 3 23 May 19:18:25 19:22:13 38° 301° (WNW) 19:26:04 437.485
M-CUBED/EXP-1 PRIME 23 May 19:25:53 19:27:46 15° 99° (E) 19:29:47 437.505
AIST 2 23 May 19:27:17 19:31:20 48° 114° (ESE) 19:35:29 435.215
AUBIESAT-1 23 May 19:37:20 19:39:39 18° 100° (E) 19:42:04 437.475
Cosmos 2491 23 May 19:47:30 19:56:06 66° 93° (E) 20:04:50 435.465 / 435.565
YUBILEINY 23 May 19:53:07 20:01:48 75° 266° (W) 20:10:26 435.215
BEESAT 2 23 May 20:03:25 20:06:08 16° 308° (NW) 20:08:43 435.950
COMPASS 1 23 May 20:09:05 20:10:35 12° 70° (ENE) 20:12:20 437.405
BRITE-PL 23 May 20:19:19 20:24:07 81° 76° (ENE) 20:29:22 437.365/2234.400
DOVE 4 23 May 20:22:34 20:26:59 34° 73° (ENE) 20:31:40 437.250
AAUSAT CUBESAT 2 23 May 20:23:31 20:25:56 16° 71° (ENE) 20:28:31 437.432
STRAND 1 23 May 20:29:00 20:33:49 41° 287° (WNW) 20:38:35 437.568
PRISM 23 May 20:29:07 20:32:33 25° 287° (WNW) 20:35:53 437.425
CINEMA 3 23 May 20:29:21 20:32:39 19° 70° (ENE) 20:36:13 145.822/145.860
GOMX 1 23 May 20:40:53 20:45:47 85° 74° (ENE) 20:51:03 467.674
HO-68 23 May 20:48:16 20:55:27 80° 74° (ENE) 21:02:39 435.675
CANX-2 23 May 20:49:47 20:54:03 75° 77° (ENE) 20:58:18 2200.000
Oscar 11 23 May 20:49:52 20:52:10 15° 71° (ENE) 20:54:39 145.826/435.025
CUTE 1.7 + AOD 2 23 May 20:53:55 20:58:11 75° 77° (ENE) 21:02:27 437.475
M-CUBED/EXP-1 PRIME 23 May 21:00:17 21:02:38 18° 292° (WNW) 21:04:55 437.505
UWE-3 23 May 21:05:03 21:07:59 17° 71° (ENE) 21:11:08 435.000/436.395/437.385
AIST 2 23 May 21:08:08 21:10:15 13° 310° (NW) 21:12:10 435.215
